Location: Newark
(13.8117°N, 3.6025°W)
Time: 20:10:55
(UTC+00:00)

Hubble Space Telescope - Pass Details

Date: 28 August 2019
Orbit: 536 x 540 km, 28.5° (Epoch: 13 October)

Event Time Altitude Azimuth Distance (km) Brightness Sun altitude
Rises 20:22:46 0° 272° (W) 2,665 5.4 -27.7°
Reaches altitude 10° 20:25:45 10° 249° (WSW) 1,774 4.0 -28.4°
Enters shadow 20:27:21 15° 227° (SW) 1,488 3.3 -28.7°
